DW7262 La Rochelle FR current weather conditions

sailwx.info

Wind from 060 at 5 knots gusting 12

Air temperature 19.4° C
Dewpoint 8.7° C

Last reported at 2014-Sep-23 15:50 UTC.
Time now 2014-Sep-23 16:25 UTC

Location: N 45°57' W 001°22'.
View on Google Maps.

See reports from other nearby stations

  
Tides and Currents Weather Stations Pressure Air Temp Water Temp Dewpoint Dewpoint Depression Visibility Wind Speed Wind Dir Waves Ship Positions
date/time (UTC)wind fromknots sea level pressurealtimeterstation pressurevisibilityair tempwater tempwave heightnotes
2014-Sep-23 15:50 060 5 gusting 12 19.4
2014-Sep-23 15:39 089 6 gusting 13 19.4
2014-Sep-23 15:29 028 6 gusting 13 19.4
2014-Sep-23 14:42 051 6 gusting 16 19.4
2014-Sep-23 14:32 060 6 gusting 16 19.4
2014-Sep-23 14:09 046 6 gusting 16 19.4
2014-Sep-23 13:59 086 8 gusting 16 19.4
2014-Sep-23 13:49 036 7 gusting 14 19.4
2014-Sep-23 13:39 081 6 gusting 19 18.9
2014-Sep-23 13:29 070 9 gusting 19 19.4
2014-Sep-23 13:19 060 7 gusting 16 19.4
2014-Sep-23 12:57 023 11 gusting 19 18.9
2014-Sep-23 12:47 040 9 gusting 19 18.9
2014-Sep-23 12:38 056 9 gusting 16 18.9
2014-Sep-23 12:04 010 11 gusting 19 17.8
2014-Sep-23 11:55 036 12 gusting 19 17.8
2014-Sep-23 11:32 018 11 gusting 20 17.8
2014-Sep-23 11:23 019 13 gusting 21 17.2
2014-Sep-23 11:13 356 12 gusting 21 17.2
2014-Sep-23 10:51 063 10 gusting 18 17.2
2014-Sep-23 10:40 038 10 gusting 19 16.7
2014-Sep-23 10:18 060 9 gusting 17 16.1
2014-Sep-23 10:08 016 9 gusting 17 16.1
2014-Sep-23 09:58 052 8 gusting 15 15.6
2014-Sep-23 09:36 044 6 gusting 13 15.0
2014-Sep-23 09:01 049 6 gusting 14 13.9
2014-Sep-23 08:51 043 7 gusting 13 13.9
2014-Sep-23 08:41 015 6 gusting 15 13.9
2014-Sep-23 08:19 029 6 gusting 12 13.3
2014-Sep-23 07:45 034 6 gusting 15 13.3
2014-Sep-23 07:35 009 7 gusting 12 13.3
2014-Sep-22 20:18 060 6 gusting 12 16.7
2014-Sep-22 18:44 080 4 gusting 10 17.8
2014-Sep-22 18:33 083 4 gusting 10 17.8
2014-Sep-22 18:00 065 4 gusting 12 18.3
2014-Sep-22 17:25 034 6 gusting 16 18.9
2014-Sep-22 17:04 077 6 gusting 12 19.4
2014-Sep-22 16:54 072 6 gusting 13 19.4
2014-Sep-22 16:08 075 6 gusting 15 20.6
2014-Sep-22 15:58 044 8 gusting 17 20.6
2014-Sep-22 15:48 056 8 gusting 17 20.6
2014-Sep-22 15:14 058 8 gusting 15 20.6
2014-Sep-22 14:40 033 7 gusting 15 20.6
2014-Sep-22 14:06 030 7 gusting 17 20.6
2014-Sep-22 13:56 097 9 gusting 17 20.6
2014-Sep-22 13:10 075 8 gusting 17 21.1
2014-Sep-22 12:48 039 9 gusting 15 20.6
2014-Sep-22 12:38 046 7 gusting 17 20.6
2014-Sep-22 12:29 062 9 gusting 17 20.0
2014-Sep-22 12:19 036 8 gusting 16 20.6
2014-Sep-22 11:45 015 9 gusting 18 20.0
2014-Sep-22 11:35 025 9 gusting 20 20.0
2014-Sep-22 11:14 058 9 gusting 20 19.4
2014-Sep-22 10:51 101 8 gusting 19 19.4
2014-Sep-22 10:42 096 10 gusting 19 18.9
2014-Sep-22 10:20 065 7 gusting 17 18.9
2014-Sep-22 09:58 044 7 gusting 16 17.8
2014-Sep-22 09:48 063 8 gusting 17 17.8
2014-Sep-22 09:38 086 9 gusting 18 17.8
2014-Sep-22 09:28 060 8 gusting 18 17.8
2014-Sep-22 09:18 078 8 gusting 15 17.2
2014-Sep-22 09:08 034 7 gusting 14 17.2
2014-Sep-22 08:58 056 8 gusting 13 17.2
2014-Sep-22 08:11 082 6 gusting 13 16.1
2014-Sep-22 07:48 083 7 gusting 13 15.6
2014-Sep-22 07:38 084 6 gusting 14 15.6
2014-Sep-21 16:02 291 3 gusting 6 21.1